Date String (YYYY-MM-DD hh:mm:ss) UTC,Instrument flags,Ambient pressure (hPa),Sample flow (lpm),Bypass flow (lpm),Sample temperature (°C),Ambient temperature (°C),ASC tube jacket temperature (°C),LED temperature (°C),Box temperature (°C),Sample RH (%),Span deviation,Mass concentration (μg/m³),Mass concentration (μg/m³),Mass concentration (μg/m³)
DateTimeUTC,F1_M11,P_M11,Q1_M11,Q2_M11,T1_M11,T2_M11,T3_M11,T4_M11,T5_M11,U1_M11,ZSPAN_M11,X0_M11,X2_M11,X1_M11
2022-12-30 02:00:00,,0819.6,4.98,0.00,21.6,20.2,00.0,30.7,23.1,07.7,0000.0,0002.47,0000.68,0000.51
2022-12-30 02:01:00,,0819.6,4.98,0.00,21.6,19.9,00.0,30.6,22.9,08.0,0000.0,0002.20,0000.67,0000.51
2022-12-30 02:02:00,,0819.7,4.99,0.00,21.4,19.4,00.0,30.6,22.7,08.0,0000.0,0001.06,0000.67,0000.51
2022-12-30 02:03:00,,0819.7,4.99,0.00,21.3,19.2,00.0,30.5,22.5,07.9,0000.0,0001.03,0000.66,0000.50
2022-12-30 02:04:00,,0819.6,5.02,0.00,21.2,19.2,00.0,30.5,22.4,07.9,0000.0,0001.08,0000.66,0000.49
2022-12-30 02:05:00,,0819.6,5.02,0.00,21.3,20.4,00.0,30.4,22.8,08.1,0000.0,0001.05,0000.65,0000.48
2022-12-30 02:06:00,,0819.6,4.97,0.00,21.4,21.5,00.0,30.3,23.2,08.2,0000.0,0000.91,0000.62,0000.48
2022-12-30 02:07:00,,0819.6,4.99,0.00,21.6,22.4,00.0,30.4,23.5,08.2,0000.0,0000.89,0000.61,0000.48
2022-12-30 02:08:00,,0819.6,5.02,0.00,21.6,22.0,00.0,30.4,23.5,08.4,0000.0,0000.85,0000.58,0000.48
2022-12-30 02:09:00,,0819.5,4.98,0.00,21.6,21.1,00.0,30.5,23.2,08.3,0000.0,0001.00,0000.60,0000.48
2022-12-30 02:10:00,,0819.5,4.98,0.00,21.5,20.6,00.0,30.5,23.0,08.4,0000.0,0001.00,0000.60,0000.49
2022-12-30 02:11:00,,0819.5,4.97,0.00,21.5,20.2,00.0,30.5,22.8,08.7,0000.0,0001.05,0000.61,0000.49
2022-12-30 02:12:00,,0819.6,5.00,0.00,21.4,19.9,00.0,30.4,22.7,08.7,0000.0,0001.11,0000.63,0000.48
2022-12-30 02:13:00,,0819.6,5.02,0.00,21.3,19.7,00.0,30.4,22.6,08.6,0000.0,0001.21,0000.68,0000.48
2022-12-30 02:14:00,,0819.6,4.97,0.00,21.2,19.4,00.0,30.4,22.5,08.6,0000.0,0001.25,0000.70,0000.48
2022-12-30 02:15:00,,0819.7,4.97,0.00,21.2,19.7,00.0,30.3,22.5,08.5,0000.0,0001.28,0000.72,0000.49
2022-12-30 02:16:00,,0819.7,5.00,0.00,21.3,21.0,00.0,30.2,22.9,08.3,0000.0,0001.32,0000.73,0000.49
2022-12-30 02:17:00,,0819.8,5.02,0.00,21.4,22.0,00.0,30.2,23.3,08.3,0000.0,0001.37,0000.73,0000.49
2022-12-30 02:18:00,,0819.8,4.98,0.00,21.5,22.5,00.0,30.3,23.4,08.3,0000.0,0001.35,0000.73,0000.50
2022-12-30 02:19:00,,0819.8,4.99,0.00,21.6,21.6,00.0,30.3,23.3,07.9,0000.0,0001.35,0000.75,0000.51
2022-12-30 02:20:00,,0819.8,5.02,0.00,21.5,20.8,00.0,30.3,23.0,08.0,0000.0,0001.30,0000.74,0000.52
2022-12-30 02:21:00,,0819.8,5.02,0.00,21.4,20.3,00.0,30.3,22.9,08.1,0000.0,0001.34,0000.75,0000.52
2022-12-30 02:22:00,,0819.7,4.96,0.00,21.4,20.1,00.0,30.3,22.7,08.0,0000.0,0001.39,0000.77,0000.53
2022-12-30 02:23:00,,0819.9,4.99,0.00,21.3,19.8,00.0,30.3,22.6,08.4,0000.0,0001.34,0000.76,0000.53
2022-12-30 02:24:00,,0819.8,5.01,0.00,21.2,19.5,00.0,30.3,22.4,08.4,0000.0,0001.29,0000.74,0000.54
2022-12-30 02:25:00,,0819.9,5.03,0.00,21.2,20.2,00.0,30.2,22.7,08.2,0000.0,0001.31,0000.74,0000.54
2022-12-30 02:26:00,,0819.9,4.99,0.00,21.3,21.4,00.0,30.2,23.1,08.1,0000.0,0001.31,0000.74,0000.54
2022-12-30 02:27:00,,0819.9,4.97,0.00,21.5,22.4,00.0,30.2,23.4,08.0,0000.0,0001.28,0000.73,0000.54
2022-12-30 02:28:00,,0819.9,5.02,0.00,21.6,22.3,00.0,30.3,23.5,07.9,0000.0,0001.36,0000.76,0000.54
2022-12-30 02:29:00,,0819.9,5.02,0.00,21.6,21.3,00.0,30.3,23.2,08.0,0000.0,0001.37,0000.75,0000.54
2022-12-30 02:30:00,,0819.9,4.98,0.00,21.5,20.4,00.0,30.3,22.9,08.0,0000.0,0001.40,0000.75,0000.54
2022-12-30 02:31:00,,0820.0,4.98,0.00,21.4,19.6,00.0,30.3,22.7,08.0,0000.0,0002.19,0000.75,0000.54
2022-12-30 02:32:00,,0819.9,5.01,0.00,21.2,19.1,00.0,30.3,22.5,08.1,0000.0,0002.17,0000.75,0000.53
2022-12-30 02:33:00,,0819.9,5.08,0.00,21.1,18.7,00.0,30.3,22.3,08.0,0000.0,0002.07,0000.73,0000.52
2022-12-30 02:34:00,,0819.8,4.96,0.00,21.0,18.7,00.0,30.2,22.2,08.3,0000.0,0002.06,0000.72,0000.53
2022-12-30 02:35:00,,0819.8,4.98,0.00,21.1,20.3,00.0,30.1,22.6,08.5,0000.0,0002.11,0000.74,0000.54
2022-12-30 02:36:00,,0819.7,5.03,0.00,21.2,21.6,00.0,30.1,23.0,08.3,0000.0,0002.14,0000.75,0000.55
2022-12-30 02:37:00,,0819.7,4.98,0.00,21.4,22.4,00.0,30.1,23.3,08.4,0000.0,0002.11,0000.74,0000.55
2022-12-30 02:38:00,,0819.7,4.98,0.00,21.5,21.9,00.0,30.2,23.3,08.5,0000.0,0002.07,0000.73,0000.55
2022-12-30 02:39:00,,0819.6,5.02,0.00,21.4,21.1,00.0,30.2,23.1,08.5,0000.0,0001.97,0000.71,0000.55
2022-12-30 02:40:00,,0819.6,5.01,0.00,21.4,20.6,00.0,30.3,22.9,08.2,0000.0,0001.93,0000.69,0000.53
2022-12-30 02:41:00,,0819.6,4.98,0.00,21.4,20.3,00.0,30.2,22.8,08.3,0000.0,0001.87,0000.69,0000.53
2022-12-30 02:42:00,,0819.6,4.98,0.00,21.3,20.1,00.0,30.2,22.7,08.4,0000.0,0001.06,0000.68,0000.52
2022-12-30 02:43:00,,0819.6,5.00,0.00,21.3,19.9,00.0,30.2,22.6,08.4,0000.0,0001.05,0000.67,0000.52
2022-12-30 02:44:00,,0819.6,5.03,0.00,21.2,19.8,00.0,30.2,22.6,08.4,0000.0,0001.06,0000.67,0000.51
2022-12-30 02:45:00,,0819.8,5.02,0.00,21.3,20.8,00.0,30.1,22.9,08.1,0000.0,0001.14,0000.69,0000.52
2022-12-30 02:46:00,,0819.8,4.95,0.00,21.4,21.8,00.0,30.1,23.2,08.1,0000.0,0001.10,0000.66,0000.50
2022-12-30 02:47:00,,0819.9,5.03,0.00,21.5,22.6,00.0,30.2,23.5,07.8,0000.0,0001.01,0000.63,0000.49
2022-12-30 02:48:00,,0819.9,5.01,0.00,21.6,22.0,00.0,30.2,23.4,07.8,0000.0,0000.99,0000.62,0000.49
2022-12-30 02:49:00,,0819.9,4.97,0.00,21.6,21.1,00.0,30.3,23.2,08.1,0000.0,0001.04,0000.65,0000.50
2022-12-30 02:50:00,,0819.9,4.99,0.00,21.5,20.5,00.0,30.3,23.0,07.9,0000.0,0001.06,0000.65,0000.51
2022-12-30 02:51:00,,0819.9,5.04,0.00,21.4,20.0,00.0,30.3,22.8,08.2,0000.0,0001.08,0000.67,0000.53
2022-12-30 02:52:00,,0819.9,5.01,0.00,21.3,19.6,00.0,30.3,22.6,08.3,0000.0,0001.09,0000.68,0000.55
2022-12-30 02:53:00,,0819.9,4.97,0.00,21.2,19.3,00.0,30.3,22.5,08.2,0000.0,0001.10,0000.70,0000.57
2022-12-30 02:54:00,,0819.9,5.00,0.00,21.1,19.2,00.0,30.2,22.4,08.0,0000.0,0001.16,0000.73,0000.59
2022-12-30 02:55:00,,0819.9,4.96,0.00,21.1,20.2,00.0,30.1,22.7,08.0,0000.0,0001.24,0000.77,0000.61
2022-12-30 02:56:00,,0819.9,5.02,0.00,21.3,21.5,00.0,30.1,23.1,07.9,0000.0,0001.22,0000.76,0000.61
2022-12-30 02:57:00,,0819.9,5.02,0.00,21.5,22.4,00.0,30.1,23.4,07.9,0000.0,0001.22,0000.78,0000.61
2022-12-30 02:58:00,,0819.9,5.00,0.00,21.6,22.2,00.0,30.2,23.5,07.7,0000.0,0001.21,0000.78,0000.61
2022-12-30 02:59:00,,0820.0,4.96,0.00,21.5,21.3,00.0,30.3,23.2,07.6,0000.0,0001.40,0000.80,0000.61
